This is the latest recevied weather packets stored in our database for station/object DM4RS-1. If no packets are shown the sender has not sent any weather packets the latest 10 day(s).
| Time | Temp. | Humidity | Pressure | Rain* | Wind** | Luminosity | Snow |
|---|---|---|---|---|---|---|---|
| 1777828076 | 28.33° C | 25% | 1012.6 hPa | - | - | - | - |
| 1777827476 | 28.89° C | 24% | 1013.5 hPa | - | - | - | - |
| 1777826876 | 28.89° C | 24% | 1013 hPa | - | - | - | - |
| 1777826275 | 29.44° C | 23% | 1013.5 hPa | - | - | - | - |
| 1777825675 | 29.44° C | 22% | 1013.2 hPa | - | - | - | - |
| 1777823874 | 30° C | 23% | 1012.4 hPa | - | - | - | - |
| 1777823274 | 30° C | 23% | 1012.5 hPa | - | - | - | - |
| 1777822673 | 30.56° C | 23% | 1012.7 hPa | - | - | - | - |
| 1777822073 | 30.56° C | 23% | 1011.5 hPa | - | - | - | - |
| 1777820873 | 31.11° C | 22% | 1012.6 hPa | - | - | - | - |
| 1777819672 | 31.11° C | 23% | 1013.8 hPa | - | - | - | - |
| 1777817872 | 31.11° C | 24% | 1013.3 hPa | - | - | - | - |
| 1777817272 | 30.56° C | 24% | 1012.8 hPa | - | - | - | - |
| 1777816071 | 30.56° C | 24% | 1013.4 hPa | - | - | - | - |
| 1777814271 | 30.56° C | 24% | 1013.6 hPa | - | - | - | - |
| 1777813670 | 30.56° C | 24% | 1014.1 hPa | - | - | - | - |
| 1777813070 | 30.56° C | 25% | 1014.1 hPa | - | - | - | - |
| 1777812470 | 30.56° C | 25% | 1014.7 hPa | - | - | - | - |
| 1777811270 | 30.56° C | 26% | 1014.9 hPa | - | - | - | - |
| 1777810669 | 30° C | 26% | 1015.5 hPa | - | - | - | - |
| 1777810069 | 30.56° C | 27% | 1015.2 hPa | - | - | - | - |
| 1777809468 | 30° C | 26% | 1015.5 hPa | - | - | - | - |
| 1777807067 | 30° C | 27% | 1013 hPa | - | - | - | - |
| 1777806467 | 30° C | 28% | 1015.6 hPa | - | - | - | - |
| 1777805266 | 30° C | 28% | 1015.6 hPa | - | - | - | - |
* Rain since midnight (hover to see other rain measurements)
** Current wind speed in m/s (hover to see current wind gust speed)